| time (UTC) | temp F | wind direction | speed MPH | gust MPH | rain 1hr in | rain 24hr in | rain mn in | humidity % | barometer mb |
| 20260505041614 | 57 | 0.0 | 0.0 | 0.00 | 0.00 | 0.00 | 14 | 1005.5 | |
| 20260505040557 | 57 | 0.0 | 0.0 | 0.00 | 0.00 | 0.00 | 14 | 1005.6 | |
| 20260505035602 | 57 | 0.0 | 0.0 | 0.00 | 0.00 | 0.00 | 14 | 1005.6 | |
| 20260505034526 | 57 | 0.0 | 0.0 | 0.00 | 0.00 | 0.00 | 14 | 1005.6 | |
| 20260505033612 | 57 | 0.0 | 0.0 | 0.00 | 0.00 | 0.00 | 14 | 1005.6 | |
| 20260505032556 | 57 | 0.0 | 0.0 | 0.00 | 0.00 | 0.00 | 14 | 1005.8 | |
| 20260505031541 | 58 | 0.0 | 0.0 | 0.00 | 0.00 | 0.00 | 14 | 1005.8 | |
| 20260505030521 | 58 | 0.0 | 0.0 | 0.00 | 0.00 | 0.00 | 14 | 1005.8 | |
| 20260505025603 | 58 | 0.0 | 0.0 | 0.00 | 0.00 | 0.00 | 14 | 1005.8 | |
| 20260505024600 | 58 | 0.0 | 0.0 | 0.00 | 0.00 | 0.00 | 14 | 1005.9 | |
| 20260505023458 | 58 | 0.0 | 0.0 | 0.00 | 0.00 | 0.00 | 14 | 1006.2 | |
| 20260505022457 | 59 | 0.0 | 0.0 | 0.00 | 0.00 | 0.00 | 14 | 1006.3 | |
| 20260505021453 | 59 | 0.0 | 0.0 | 0.00 | 0.00 | 0.00 | 14 | 1006.2 | |
| 20260505020512 | 59 | 0.0 | 0.0 | 0.00 | 0.00 | 0.00 | 14 | 1006.3 | |
| 20260505015511 | 59 | 0.0 | 0.0 | 0.00 | 0.00 | 0.00 | 14 | 1006.3 | |
| 20260505014455 | 60 | 0.0 | 0.0 | 0.00 | 0.00 | 0.00 | 14 | 1006.3 | |
| 20260505013438 | 60 | 0.0 | 0.0 | 0.00 | 0.00 | 0.00 | 14 | 1006.4 | |
| 20260505012545 | 60 | 0.0 | 0.0 | 0.00 | 0.00 | 0.00 | 14 | 1006.4 | |
| 20260505011549 | 60 | 0.0 | 0.0 | 0.00 | 0.00 | 0.00 | 14 | 1006.3 | |
| 20260505010514 | 60 | 0.0 | 0.0 | 0.00 | 0.00 | 0.00 | 14 | 1006.6 | |
| 20260505005417 | 61 | 0.0 | 0.0 | 0.00 | 0.00 | 0.00 | 14 | 1006.6 | |
| 20260505004302 | 61 | 0.0 | 0.0 | 0.00 | 0.00 | 0.00 | 14 | 1006.5 | |
| 20260505003246 | 61 | 0.0 | 0.0 | 0.00 | 0.00 | 0.00 | 14 | 1006.8 | |
| 20260505002129 | 61 | 0.0 | 0.0 | 0.00 | 0.00 | 0.00 | 14 | 1006.8 | |
| 20260505000158 | 62 | 0.0 | 0.0 | 0.00 | 0.00 | 0.00 | 14 | 1007.0 | |
| 20260504235142 | 62 | 0.0 | 0.0 | 0.00 | 0.00 | 0.00 | 14 | 1007.0 | |
| 20260504234126 | 62 | 0.0 | 0.0 | 0.00 | 0.00 | 0.00 | 14 | 1007.0 | |
| 20260504233232 | 63 | 0.0 | 0.0 | 0.00 | 0.00 | 0.00 | 14 | 1007.2 | |
| 20260504232216 | 63 | 0.0 | 0.0 | 0.00 | 0.00 | 0.00 | 14 | 1007.2 | |
| 20260504231139 | 63 | 0.0 | 0.0 | 0.00 | 0.00 | 0.00 | 14 | 1007.0 | |
| 20260504230122 | 63 | 0.0 | 0.0 | 0.00 | 0.00 | 0.00 | 14 | 1007.2 | |
| 20260504225328 | 63 | 0.0 | 0.0 | 0.00 | 0.00 | 0.00 | 14 | 1007.2 | |
| 20260504224212 | 64 | 0.0 | 0.0 | 0.00 | 0.00 | 0.00 | 14 | 1007.3 | |
| 20260504223135 | 64 | 0.0 | 0.0 | 0.00 | 0.00 | 0.00 | 14 | 1007.6 | |
| 20260504222119 | 64 | 0.0 | 0.0 | 0.00 | 0.00 | 0.00 | 14 | 1007.6 | |
| 20260504221245 | 64 | 0.0 | 0.0 | 0.00 | 0.00 | 0.00 | 14 | 1007.4 | |
| 20260504220148 | 64 | 0.0 | 0.0 | 0.00 | 0.00 | 0.00 | 14 | 1007.6 | |
| 20260504215032 | 64 | 0.0 | 0.0 | 0.00 | 0.00 | 0.00 | 14 | 1007.6 | |
| 20260504214117 | 65 | 0.0 | 0.0 | 0.00 | 0.00 | 0.00 | 14 | 1007.6 | |
| 20260504213140 | 65 | 0.0 | 0.0 | 0.00 | 0.00 | 0.00 | 14 | 1007.8 | |
| 20260504212104 | 65 | 0.0 | 0.0 | 0.00 | 0.00 | 0.00 | 14 | 1007.8 | |
| 20260504211027 | 65 | 0.0 | 0.0 | 0.00 | 0.00 | 0.00 | 14 | 1007.8 | |
| 20260504210112 | 65 | 0.0 | 0.0 | 0.00 | 0.00 | 0.00 | 14 | 1007.8 | |
| 20260504205056 | 65 | 0.0 | 0.0 | 0.00 | 0.00 | 0.00 | 14 | 1007.8 | |
| 20260504204100 | 66 | 0.0 | 0.0 | 0.00 | 0.00 | 0.00 | 14 | 1007.8 | |
| 20260504203103 | 66 | 0.0 | 0.0 | 0.00 | 0.00 | 0.00 | 14 | 1008.0 | |
| 20260504202108 | 66 | 0.0 | 0.0 | 0.00 | 0.00 | 0.00 | 14 | 1008.0 | |
| 20260504201052 | 66 | 0.0 | 0.0 | 0.00 | 0.00 | 0.00 | 14 | 1008.0 | |
| 20260504195253 | 67 | 0.0 | 0.0 | 0.00 | 0.00 | 0.00 | 14 | 1007.8 | |
| 20260504194236 | 67 | 0.0 | 0.0 | 0.00 | 0.00 | 0.00 | 14 | 1007.8 | |
| 20260504193205 | 0 | 0.0 | 0.0 | 0.00 | 0.00 | 0.00 | |||
| 20260504192431 | 0 | 0.0 | 0.0 | 0.00 | 0.00 | 0.00 | |||
| 20260504191253 | 0 | 0.0 | 0.0 | 0.00 | 0.00 | 0.00 | |||
| 20260504190257 | 0 | 0.0 | 0.0 | 0.00 | 0.00 | 0.00 | |||
| 20260504185206 | 0 | 0.0 | 0.0 | 0.00 | 0.00 | 0.00 | |||
| 20260504184153 | 0 | 0.0 | 0.0 | 0.00 | 0.00 | 0.00 | |||
| 20260504183136 | 0 | 0.0 | 0.0 | 0.00 | 0.00 | 0.00 | |||
| 20260504182121 | 0 | 0.0 | 0.0 | 0.00 | 0.00 | 0.00 | |||
| 20260504181128 | 0 | 0.0 | 0.0 | 0.00 | 0.00 | 0.00 | |||
| 20260504180158 | 0 | 0.0 | 0.0 | 0.00 | 0.00 | 0.00 | |||
| 20260504174447 | 75 | 0.0 | 0.0 | 0.00 | 0.00 | 0.00 | 14 | 1007.5 | |
| 20260504173430 | 74 | 0.0 | 0.0 | 0.00 | 0.00 | 0.00 | 14 | 1007.6 | |
| 20260504172636 | 74 | 0.0 | 0.0 | 0.00 | 0.00 | 0.00 | 14 | 1007.6 | |
| 20260504171519 | 75 | 0.0 | 0.0 | 0.00 | 0.00 | 0.00 | 14 | 1007.6 | |
| 20260504170442 | 76 | 0.0 | 0.0 | 0.00 | 0.00 | 0.00 | 14 | 1007.6 | |
| 20260504150326 | 83 | 0.0 | 0.0 | 0.00 | 0.00 | 0.00 | 14 | 1008.7 | |
| 20260504140350 | 84 | 0.0 | 0.0 | 0.00 | 0.00 | 0.00 | 14 | 1009.3 | |
| 20260504130515 | 82 | 0.0 | 0.0 | 0.00 | 0.00 | 0.00 | 14 | 1009.9 | |
| 20260504110402 | 76 | 0.0 | 0.0 | 0.00 | 0.00 | 0.00 | 14 | 1010.7 | |
| 20260504100506 | 73 | 0.0 | 0.0 | 0.00 | 0.00 | 0.00 | 14 | 1010.8 | |
| 20260504081408 | 67 | 0.0 | 0.0 | 0.00 | 0.00 | 0.00 | 14 | 1010.4 | |
| 20260504080514 | 66 | 0.0 | 0.0 | 0.00 | 0.00 | 0.00 | 14 | 1010.1 | |
| 20260504070337 | 61 | 0.0 | 0.0 | 0.00 | 0.00 | 0.00 | 14 | 1010.2 | |
| 20260504050327 | 56 | 0.0 | 0.0 | 0.00 | 0.00 | 0.00 | 14 | 1009.9 |